,,Stat6,,Stat2,,Stat8,,Stat9,,Stat10,,Wind1,,Wind1,
time,status,PA1M_AVG,status,PR1M_SUM,status,RH1M_AVG,status,SR1M_AVG,status,TA1M_AVG,status,W1dAve1m,status,W1sAve1m,
2005-03-11, 00:00:00,VALID,919.727,VALID,0,VALID,96.7132,VALID,0.0169808,VALID,21.0706,VALID,40,VALID,0.0172602,
2005-03-11, 00:01:00,VALID,919.709,VALID,0,VALID,96.6712,VALID,0.0679233,VALID,21.061,VALID,40,VALID,0,
2005-03-11, 00:02:00,VALID,919.677,VALID,0,VALID,96.7055,VALID,0.0339617,VALID,21.0642,VALID,40,VALID,0.0143229,
2005-03-11, 00:03:00,VALID,919.652,VALID,0,VALID,96.5758,VALID,0.0339617,VALID,21.0706,VALID,40,VALID,0.242188,
2005-03-11, 00:04:00,VALID,919.63,VALID,0,VALID,96.511,VALID,0.0509425,VALID,21.0615,VALID,40,VALID,0.571987,
2005-03-11, 00:05:00,VALID,919.589,VALID,0,VALID,96.3647,VALID,0.0169808,VALID,21.0349,VALID,40,VALID,0.239644,
2005-03-11, 00:06:00,VALID,919.548,VALID,0,VALID,96.3584,VALID,-0.0169808,VALID,21.0061,VALID,38,VALID,0.385174,
2005-03-11, 00:07:00,VALID,919.533,VALID,0,VALID,96.3393,VALID,0.0339617,VALID,20.9799,VALID,37,VALID,0.235085,
2005-03-11, 00:08:00,VALID,919.5,VALID,0,VALID,96.3228,VALID,0.0169808,VALID,20.9579,VALID,37,VALID,0.213356,
2005-03-11, 00:09:00,VALID,919.489,VALID,0,VALID,96.4118,VALID,-0.0509425,VALID,20.9366,VALID,31,VALID,0.359933,
2005-03-11, 00:10:00,VALID,919.492,VALID,0,VALID,96.6229,VALID,-0.0509425,VALID,20.9175,VALID,5,VALID,0.367569,
2005-03-11, 00:11:00,VALID,919.518,VALID,0,VALID,96.7666,VALID,-0.0849042,VALID,20.9075,VALID,350,VALID,0.429501,
2005-03-11, 00:12:00,VALID,919.53,VALID,0,VALID,96.7259,VALID,-0.0339617,VALID,20.8981,VALID,317,VALID,0.506882,
2005-03-11, 00:13:00,VALID,919.526,VALID,0,VALID,96.8568,VALID,-0.0849042,VALID,20.9075,VALID,327,VALID,0.39572,
2005-03-11, 00:14:00,VALID,919.509,VALID,0,VALID,96.7424,VALID,-0.0849042,VALID,20.9333,VALID,335,VALID,0.978087,
2005-03-11, 00:15:00,VALID,919.504,VALID,0,VALID,96.5288,VALID,-0.0849042,VALID,20.9269,VALID,356,VALID,0.847751,
2005-03-11, 00:16:00,VALID,919.468,VALID,0,VALID,96.5046,VALID,-0.0679233,VALID,20.9172,VALID,12,VALID,0.997997,
2005-03-11, 00:17:00,VALID,919.467,VALID,0,VALID,96.497,VALID,-0.0849042,VALID,20.9043,VALID,13,VALID,1.10849,
2005-03-11, 00:18:00,VALID,919.438,VALID,0,VALID,96.2808,VALID,-0.0849042,VALID,20.8752,VALID,17,VALID,0.862723,
2005-03-11, 00:19:00,VALID,919.418,VALID,0,VALID,96.4283,VALID,-0.0849042,VALID,20.8131,VALID,16,VALID,0.918988,
2005-03-11, 00:20:00,VALID,919.398,VALID,0,VALID,96.6013,VALID,-0.0849042,VALID,20.7753,VALID,15,VALID,0.517014,
2005-03-11, 00:21:00,VALID,919.384,VALID,0,VALID,97.0031,VALID,-0.101885,VALID,20.7495,VALID,330,VALID,0.977865,
2005-03-11, 00:22:00,VALID,919.378,VALID,0,VALID,97.3858,VALID,-0.0849042,VALID,20.7557,VALID,325,VALID,1.25436,
2005-03-11, 00:23:00,VALID,919.391,VALID,0,VALID,97.471,VALID,-0.101885,VALID,20.7945,VALID,314,VALID,0.605564,
2005-03-11, 00:24:00,VALID,919.375,VALID,0,VALID,97.4113,VALID,-0.101885,VALID,20.837,VALID,314,VALID,0.132813,
2005-03-11, 00:25:00,VALID,919.383,VALID,0,VALID,97.3693,VALID,-0.101885,VALID,20.8728,VALID,314,VALID,0.329901,
2005-03-11, 00:26:00,VALID,919.375,VALID,0,VALID,97.3248,VALID,-0.101885,VALID,20.8787,VALID,314,VALID,0.012173,
2005-03-11, 00:27:00,VALID,919.362,VALID,0,VALID,97.3083,VALID,-0.0849042,VALID,20.8752,VALID,314,VALID,0.00203804,
2005-03-11, 00:28:00,VALID,919.348,VALID,0,VALID,97.3769,VALID,-0.0849042,VALID,20.8728,VALID,314,VALID,0,
2005-03-11, 00:29:00,VALID,919.346,VALID,0,VALID,97.4011,VALID,-0.101885,VALID,20.879,VALID,338,VALID,0.098544,
2005-03-11, 00:30:00,VALID,919.355,VALID,0,VALID,97.3362,VALID,-0.101885,VALID,20.8655,VALID,354,VALID,0.288154,
2005-03-11, 00:31:00,VALID,919.38,VALID,0,VALID,97.2752,VALID,-0.0849042,VALID,20.8564,VALID,355,VALID,0.378997,
2005-03-11, 00:32:00,VALID,919.378,VALID,0,VALID,97.2129,VALID,-0.0849042,VALID,20.8496,VALID,8,VALID,0.625,
2005-03-11, 00:33:00,VALID,919.375,VALID,0,VALID,97.2015,VALID,-0.0849042,VALID,20.8372,VALID,10,VALID,0.585537,
2005-03-11, 00:34:00,VALID,919.372,VALID,0,VALID,97.3108,VALID,-0.101885,VALID,20.8211,VALID,12,VALID,0.471912,
2005-03-11, 00:35:00,VALID,919.362,VALID,0,VALID,97.3337,VALID,-0.101885,VALID,20.8079,VALID,12,VALID,0.152902,
2005-03-11, 00:36:00,VALID,919.375,VALID,0,VALID,97.3744,VALID,-0.101885,VALID,20.7912,VALID,12,VALID,0,
2005-03-11, 00:37:00,VALID,919.384,VALID,0,VALID,97.2994,VALID,-0.101885,VALID,20.8047,VALID,12,VALID,0,
2005-03-11, 00:38:00,VALID,919.39,VALID,0,VALID,97.1569,VALID,-0.0679233,VALID,20.8074,VALID,12,VALID,0,
2005-03-11, 00:39:00,VALID,919.378,VALID,0,VALID,97.246,VALID,0,VALID,20.7835,VALID,12,VALID,0,
2005-03-11, 00:40:00,VALID,919.339,VALID,0,VALID,97.3947,VALID,0,VALID,20.7705,VALID,12,VALID,0,
2005-03-11, 00:41:00,VALID,919.303,VALID,0,VALID,97.499,VALID,0.0169808,VALID,20.7773,VALID,12,VALID,0,
2005-03-11, 00:42:00,VALID,919.256,VALID,0,VALID,97.5194,VALID,0,VALID,20.7705,VALID,12,VALID,0,
2005-03-11, 00:43:00,VALID,919.221,VALID,0,VALID,97.5143,VALID,0,VALID,20.781,VALID,12,VALID,0,
2005-03-11, 00:44:00,VALID,919.201,VALID,0,VALID,97.424,VALID,0,VALID,20.7703,VALID,12,VALID,0,
2005-03-11, 00:45:00,VALID,919.178,VALID,0,VALID,97.3604,VALID,0,VALID,20.7541,VALID,12,VALID,0.0883557,
2005-03-11, 00:46:00,VALID,919.174,VALID,0,VALID,97.4405,VALID,0,VALID,20.7458,VALID,11,VALID,0.263021,
2005-03-11, 00:47:00,VALID,919.168,VALID,0,VALID,97.5448,VALID,0,VALID,20.7492,VALID,11,VALID,0.0498798,
2005-03-11, 00:48:00,VALID,919.165,VALID,0,VALID,97.6249,VALID,-0.0339617,VALID,20.7417,VALID,11,VALID,0,
2005-03-11, 00:49:00,VALID,919.159,VALID,0,VALID,97.5499,VALID,-0.0169808,VALID,20.7517,VALID,11,VALID,0,
2005-03-11, 00:50:00,VALID,919.139,VALID,0,VALID,96.7386,VALID,0,VALID,20.6868,VALID,11,VALID,0,
2005-03-11, 00:51:00,VALID,919.122,VALID,0,VALID,96.53,VALID,0,VALID,20.6357,VALID,11,VALID,0,
2005-03-11, 00:52:00,VALID,919.1,VALID,0,VALID,96.6737,VALID,0,VALID,20.5937,VALID,11,VALID,0.00223214,
2005-03-11, 00:53:00,VALID,919.08,VALID,0,VALID,96.923,VALID,0,VALID,20.5708,VALID,11,VALID,0,
2005-03-11, 00:54:00,VALID,919.071,VALID,0,VALID,97.1417,VALID,0,VALID,20.5649,VALID,11,VALID,0,
2005-03-11, 00:55:00,VALID,919.062,VALID,0,VALID,97.3757,VALID,0,VALID,20.5552,VALID,11,VALID,0,
2005-03-11, 00:56:00,VALID,919.046,VALID,0,VALID,97.6147,VALID,0,VALID,20.5418,VALID,11,VALID,0,
2005-03-11, 00:57:00,VALID,919.026,VALID,0,VALID,97.6872,VALID,0,VALID,20.5423,VALID,11,VALID,0,
2005-03-11, 00:58:00,VALID,919.018,VALID,0,VALID,97.2867,VALID,0,VALID,20.5057,VALID,11,VALID,0.136814,
2005-03-11, 00:59:00,VALID,919.009,VALID,0,VALID,97.1748,VALID,0.0169808,VALID,20.4613,VALID,11,VALID,0.161395,
2005-03-11, 01:00:00,VALID,918.997,VALID,0,VALID,97.5995,VALID,0,VALID,20.4352,VALID,11,VALID,0.432884,
2005-03-11, 01:01:00,VALID,918.974,VALID,0,VALID,97.8309,VALID,0.0169808,VALID,20.4163,VALID,11,VALID,0.260538,
2005-03-11, 01:02:00,VALID,918.942,VALID,0,VALID,98.1399,VALID,0.0169808,VALID,20.4002,VALID,11,VALID,0.00415559,
2005-03-11, 01:03:00,VALID,918.902,VALID,0,VALID,98.2836,VALID,0,VALID,20.3706,VALID,11,VALID,0.0396341,
2005-03-11, 01:04:00,VALID,918.855,VALID,0,VALID,98.3688,VALID,0,VALID,20.3676,VALID,11,VALID,0,
2005-03-11, 01:05:00,VALID,918.821,VALID,0,VALID,98.501,VALID,0,VALID,20.3609,VALID,10,VALID,0.12593,
2005-03-11, 01:06:00,VALID,918.792,VALID,0,VALID,98.585,VALID,0,VALID,20.3607,VALID,9,VALID,0,
2005-03-11, 01:07:00,VALID,918.765,VALID,0,VALID,98.6447,VALID,0,VALID,20.3706,VALID,9,VALID,0,
2005-03-11, 01:08:00,VALID,918.742,VALID,0,VALID,98.7871,VALID,0.0169808,VALID,20.3967,VALID,9,VALID,0,
2005-03-11, 01:09:00,VALID,918.714,VALID,0,VALID,98.8609,VALID,0,VALID,20.4355,VALID,9,VALID,0,
2005-03-11, 01:10:00,VALID,918.711,VALID,0,VALID,98.8215,VALID,-0.0169808,VALID,20.4742,VALID,9,VALID,0,
2005-03-11, 01:11:00,VALID,918.713,VALID,0,VALID,98.7375,VALID,0,VALID,20.4874,VALID,9,VALID,0,
2005-03-11, 01:12:00,VALID,918.732,VALID,0,VALID,98.6269,VALID,0,VALID,20.5172,VALID,9,VALID,0.0641026,
2005-03-11, 01:13:00,VALID,918.767,VALID,0,VALID,98.6371,VALID,0,VALID,20.5132,VALID,9,VALID,0.00800305,
2005-03-11, 01:14:00,VALID,918.796,VALID,0,VALID,98.8978,VALID,0,VALID,20.5485,VALID,9,VALID,0.000520833,
2005-03-11, 01:15:00,VALID,918.831,VALID,0,VALID,99.0605,VALID,-0.0169808,VALID,20.5872,VALID,9,VALID,0.0287729,
2005-03-11, 01:16:00,VALID,918.857,VALID,0,VALID,99.0504,VALID,-0.0169808,VALID,20.6389,VALID,9,VALID,0.033346,
2005-03-11, 01:17:00,VALID,918.874,VALID,0,VALID,98.8901,VALID,0.0169808,VALID,20.6518,VALID,7,VALID,0.0779514,
2005-03-11, 01:18:00,VALID,918.892,VALID,0,VALID,98.6994,VALID,0,VALID,20.6618,VALID,223,VALID,0.560697,
2005-03-11, 01:19:00,VALID,918.898,VALID,0,VALID,98.5646,VALID,0,VALID,20.6553,VALID,198,VALID,0.390092,
2005-03-11, 01:20:00,VALID,918.908,VALID,0,VALID,98.4527,VALID,0.0169808,VALID,20.6416,VALID,193,VALID,0.298177,
2005-03-11, 01:21:00,VALID,918.914,VALID,0,VALID,98.5099,VALID,0,VALID,20.6421,VALID,203,VALID,0.113281,
2005-03-11, 01:22:00,VALID,918.927,VALID,0,VALID,98.6256,VALID,0,VALID,20.6613,VALID,205,VALID,0.00106534,
2005-03-11, 01:23:00,VALID,918.948,VALID,0,VALID,98.7197,VALID,0,VALID,20.6976,VALID,205,VALID,0.154916,
2005-03-11, 01:24:00,VALID,918.979,VALID,0,VALID,98.6841,VALID,0.0169808,VALID,20.7135,VALID,205,VALID,0.162246,
2005-03-11, 01:25:00,VALID,918.992,VALID,0,VALID,98.6422,VALID,0.0169808,VALID,20.7129,VALID,205,VALID,0.163504,
2005-03-11, 01:26:00,VALID,919.013,VALID,0,VALID,98.7426,VALID,0.0339617,VALID,20.7286,VALID,205,VALID,0.249805,
2005-03-11, 01:27:00,VALID,919.032,VALID,0,VALID,98.6714,VALID,0.0509425,VALID,20.7321,VALID,205,VALID,0.0165551,
2005-03-11, 01:28:00,VALID,919.031,VALID,0,VALID,98.4654,VALID,0.0169808,VALID,20.7293,VALID,205,VALID,0.015625,
2005-03-11, 01:29:00,VALID,919.034,VALID,0,VALID,98.3815,VALID,0.0339617,VALID,20.7154,VALID,205,VALID,0.0260417,
2005-03-11, 01:30:00,VALID,919.029,VALID,0,VALID,98.4336,VALID,0.0339617,VALID,20.7122,VALID,205,VALID,0.428089,
2005-03-11, 01:31:00,VALID,919.016,VALID,0,VALID,98.4171,VALID,0.0849042,VALID,20.7221,VALID,205,VALID,0.441016,
2005-03-11, 01:32:00,VALID,918.994,VALID,0,VALID,98.4425,VALID,0.0849042,VALID,20.7253,VALID,205,VALID,0.205729,
2005-03-11, 01:33:00,VALID,918.999,VALID,0,VALID,98.482,VALID,0.0679233,VALID,20.7417,VALID,205,VALID,0.40332,
2005-03-11, 01:34:00,VALID,918.97,VALID,0,VALID,98.6193,VALID,0.101885,VALID,20.7541,VALID,205,VALID,0.301962,
2005-03-11, 01:35:00,VALID,918.946,VALID,0,VALID,98.5087,VALID,0.0849042,VALID,20.7633,VALID,205,VALID,0.287016,
2005-03-11, 01:36:00,VALID,918.938,VALID,0,VALID,98.3968,VALID,0.101885,VALID,20.7638,VALID,205,VALID,0.126453,
2005-03-11, 01:37:00,VALID,918.926,VALID,0,VALID,98.4794,VALID,0.101885,VALID,20.7641,VALID,206,VALID,0.0704942,
2005-03-11, 01:38:00,VALID,918.906,VALID,0,VALID,98.5214,VALID,0.0679233,VALID,20.7735,VALID,205,VALID,0.0530523,
2005-03-11, 01:39:00,VALID,918.897,VALID,0,VALID,98.5252,VALID,-0.0339617,VALID,20.7945,VALID,206,VALID,0.0133384,
2005-03-11, 01:40:00,VALID,918.9,VALID,0,VALID,98.4794,VALID,-0.0169808,VALID,20.781,VALID,206,VALID,0.0825408,
2005-03-11, 01:41:00,VALID,918.9,VALID,0,VALID,98.4781,VALID,-0.0169808,VALID,20.7845,VALID,205,VALID,0.0433239,
2005-03-11, 01:42:00,VALID,918.912,VALID,0,VALID,98.4896,VALID,-0.0339617,VALID,20.7982,VALID,205,VALID,0,
2005-03-11, 01:43:00,VALID,918.923,VALID,0,VALID,98.5023,VALID,-0.0509425,VALID,20.7942,VALID,205,VALID,0,
2005-03-11, 01:44:00,VALID,918.94,VALID,0,VALID,98.4781,VALID,0,VALID,20.7977,VALID,205,VALID,0,
2005-03-11, 01:45:00,VALID,918.951,VALID,0,VALID,98.426,VALID,-0.0509425,VALID,20.7918,VALID,204,VALID,0.271528,
2005-03-11, 01:46:00,VALID,918.978,VALID,0,VALID,98.3904,VALID,-0.0509425,VALID,20.7923,VALID,195,VALID,0.322856,
2005-03-11, 01:47:00,VALID,919.019,VALID,0,VALID,98.3357,VALID,-0.0509425,VALID,20.7724,VALID,224,VALID,0.752544,
2005-03-11, 01:48:00,VALID,919.024,VALID,0,VALID,98.4375,VALID,-0.0509425,VALID,20.7334,VALID,238,VALID,1.18537,
2005-03-11, 01:49:00,VALID,919.028,VALID,0,VALID,98.4743,VALID,-0.0169808,VALID,20.7204,VALID,242,VALID,1.45778,
2005-03-11, 01:50:00,VALID,919.045,VALID,0,VALID,98.4578,VALID,-0.0509425,VALID,20.7266,VALID,247,VALID,0.880409,
2005-03-11, 01:51:00,VALID,919.055,VALID,0,VALID,98.4387,VALID,-0.0169808,VALID,20.7361,VALID,239,VALID,1.17387,
2005-03-11, 01:52:00,VALID,919.068,VALID,0,VALID,98.3853,VALID,-0.0509425,VALID,20.7393,VALID,236,VALID,1.13002,
2005-03-11, 01:53:00,VALID,919.053,VALID,0,VALID,98.4349,VALID,0,VALID,20.7323,VALID,258,VALID,1.19048,
2005-03-11, 01:54:00,VALID,919.021,VALID,0,VALID,98.4209,VALID,0.0679233,VALID,20.7119,VALID,260,VALID,1.29315,
2005-03-11, 01:55:00,VALID,918.98,VALID,0,VALID,98.5265,VALID,0.101885,VALID,20.7092,VALID,234,VALID,0.889482,
2005-03-11, 01:56:00,VALID,918.952,VALID,0,VALID,98.5913,VALID,0.0679233,VALID,20.6831,VALID,244,VALID,0.607118,
2005-03-11, 01:57:00,VALID,918.931,VALID,0,VALID,98.6752,VALID,0.101885,VALID,20.6669,VALID,277,VALID,0.472461,
2005-03-11, 01:58:00,VALID,918.916,VALID,0,VALID,98.7261,VALID,0.0849042,VALID,20.6607,VALID,278,VALID,0.334302,
2005-03-11, 01:59:00,VALID,918.905,VALID,0,VALID,98.838,VALID,0.0849042,VALID,20.6637,VALID,281,VALID,0.0585029,
2005-03-11, 02:00:00,VALID,918.911,VALID,0,VALID,98.7325,VALID,0.101885,VALID,20.6573,VALID,254,VALID,0.720084,
2005-03-11, 02:01:00,VALID,918.899,VALID,0,VALID,98.6892,VALID,0.101885,VALID,20.657,VALID,242,VALID,0.951601,
2005-03-11, 02:02:00,VALID,918.87,VALID,0,VALID,98.6752,VALID,0.101885,VALID,20.6538,VALID,249,VALID,1.03888,
2005-03-11, 02:03:00,VALID,918.876,VALID,0,VALID,98.6905,VALID,0.0339617,VALID,20.6734,VALID,275,VALID,0.375363,
2005-03-11, 02:04:00,VALID,918.861,VALID,0,VALID,98.5913,VALID,0.0509425,VALID,20.6764,VALID,234,VALID,0.602653,
2005-03-11, 02:05:00,VALID,918.827,VALID,0,VALID,98.3306,VALID,0.0849042,VALID,20.6799,VALID,252,VALID,1.25142,
2005-03-11, 02:06:00,VALID,918.776,VALID,0,VALID,98.1475,VALID,0.101885,VALID,20.6896,VALID,274,VALID,0.557227,
2005-03-11, 02:07:00,VALID,918.713,VALID,0,VALID,98.1831,VALID,0.101885,VALID,20.7089,VALID,291,VALID,0.700838,
2005-03-11, 02:08:00,VALID,918.634,VALID,0,VALID,97.9415,VALID,0.0679233,VALID,20.703,VALID,349,VALID,0.530134,
2005-03-11, 02:09:00,VALID,918.597,VALID,0,VALID,97.8729,VALID,-0.0169808,VALID,20.7038,VALID,24,VALID,0.354102,
2005-03-11, 02:10:00,VALID,918.577,VALID,0,VALID,97.3744,VALID,-0.0509425,VALID,20.6881,VALID,31,VALID,0.65734,
2005-03-11, 02:11:00,VALID,918.525,VALID,0,VALID,97.4329,VALID,-0.0169808,VALID,20.6814,VALID,126,VALID,0.592262,
2005-03-11, 02:12:00,VALID,918.462,VALID,0,VALID,97.466,VALID,-0.0509425,VALID,20.6909,VALID,119,VALID,0.583031,
2005-03-11, 02:13:00,VALID,918.418,VALID,0,VALID,97.4278,VALID,-0.0339617,VALID,20.6847,VALID,101,VALID,0.585756,
2005-03-11, 02:14:00,VALID,918.405,VALID,0,VALID,97.3108,VALID,-0.0169808,VALID,20.6682,VALID,101,VALID,0.323153,
2005-03-11, 02:15:00,VALID,918.444,VALID,0,VALID,96.9993,VALID,0,VALID,20.6421,VALID,101,VALID,0.140262,
2005-03-11, 02:16:00,VALID,918.456,VALID,0,VALID,96.881,VALID,-0.0679233,VALID,20.6496,VALID,145,VALID,0.336111,
2005-03-11, 02:17:00,VALID,918.464,VALID,0,VALID,96.7895,VALID,0,VALID,20.6586,VALID,193,VALID,0.68471,
2005-03-11, 02:18:00,VALID,918.46,VALID,0,VALID,96.5364,VALID,0,VALID,20.6454,VALID,183,VALID,0.871548,
2005-03-11, 02:19:00,VALID,918.441,VALID,0,VALID,96.6203,VALID,-0.0169808,VALID,20.6521,VALID,179,VALID,1.03809,
2005-03-11, 02:20:00,VALID,918.424,VALID,0,VALID,96.9522,VALID,-0.0679233,VALID,20.6526,VALID,170,VALID,1.15911,
2005-03-11, 02:21:00,VALID,918.406,VALID,0,VALID,97.3464,VALID,-0.0339617,VALID,20.623,VALID,157,VALID,1.258,
2005-03-11, 02:22:00,VALID,918.418,VALID,0,VALID,97.7419,VALID,0,VALID,20.5902,VALID,156,VALID,0.81359,
2005-03-11, 02:23:00,VALID,918.425,VALID,0,VALID,98.0801,VALID,0,VALID,20.5544,VALID,144,VALID,1.4375,
2005-03-11, 02:24:00,VALID,918.41,VALID,0,VALID,98.4425,VALID,0.0169808,VALID,20.5281,VALID,143,VALID,1.1859,
2005-03-11, 02:25:00,VALID,918.383,VALID,0,VALID,98.6549,VALID,0,VALID,20.4993,VALID,149,VALID,0.605114,
2005-03-11, 02:26:00,VALID,918.362,VALID,0,VALID,98.7566,VALID,0,VALID,20.4707,VALID,120,VALID,0.873757,
2005-03-11, 02:27:00,VALID,918.364,VALID,0,VALID,98.7617,VALID,0.0339617,VALID,20.4312,VALID,110,VALID,0.484553,
2005-03-11, 02:28:00,VALID,918.351,VALID,0,VALID,98.9219,VALID,0,VALID,20.4188,VALID,156,VALID,0.689276,
2005-03-11, 02:29:00,VALID,918.351,VALID,0,VALID,99.0707,VALID,0,VALID,20.4019,VALID,154,VALID,0.318979,
2005-03-11, 02:30:00,VALID,918.335,VALID,0,VALID,99.105,VALID,0,VALID,20.4091,VALID,150,VALID,0.00708576,
2005-03-11, 02:31:00,VALID,918.335,VALID,0,VALID,99.1381,VALID,0,VALID,20.393,VALID,150,VALID,0.00218023,
2005-03-11, 02:32:00,VALID,918.331,VALID,0,VALID,99.2055,VALID,0,VALID,20.3965,VALID,150,VALID,0.0407774,
2005-03-11, 02:33:00,VALID,918.323,VALID,0,VALID,99.0122,VALID,0.0169808,VALID,20.3569,VALID,212,VALID,0.553089,
2005-03-11, 02:34:00,VALID,918.306,VALID,0,VALID,99.03,VALID,0,VALID,20.3413,VALID,222,VALID,0.64335,
2005-03-11, 02:35:00,VALID,918.282,VALID,0,VALID,99.0516,VALID,0.0169808,VALID,20.3152,VALID,221,VALID,0.76456,
2005-03-11, 02:36:00,VALID,918.259,VALID,0,VALID,99.2233,VALID,0.0169808,VALID,20.312,VALID,201,VALID,0.211664,
2005-03-11, 02:37:00,VALID,918.202,VALID,0,VALID,99.3085,VALID,0,VALID,20.319,VALID,201,VALID,0.0909598,
2005-03-11, 02:38:00,VALID,918.16,VALID,0,VALID,99.2971,VALID,0.0169808,VALID,20.3217,VALID,201,VALID,0.0994665,
2005-03-11, 02:39:00,VALID,918.125,VALID,0,VALID,99.3085,VALID,0.0339617,VALID,20.3157,VALID,170,VALID,0.325586,
2005-03-11, 02:40:00,VALID,918.114,VALID,0,VALID,99.0402,VALID,0.0169808,VALID,20.2864,VALID,141,VALID,0.516026,
2005-03-11, 02:41:00,VALID,918.109,VALID,0,VALID,98.6053,VALID,0.0169808,VALID,20.238,VALID,165,VALID,0.454985,
2005-03-11, 02:42:00,VALID,918.13,VALID,0,VALID,98.309,VALID,0.0169808,VALID,20.2092,VALID,156,VALID,0.452237,
2005-03-11, 02:43:00,VALID,918.138,VALID,0,VALID,98.2582,VALID,0.0169808,VALID,20.2062,VALID,148,VALID,0.370117,
2005-03-11, 02:44:00,VALID,918.143,VALID,0,VALID,98.2365,VALID,0.0509425,VALID,20.1997,VALID,108,VALID,0.649926,
2005-03-11, 02:45:00,VALID,918.123,VALID,0,VALID,98.3421,VALID,0,VALID,20.1965,VALID,101,VALID,0.767535,
2005-03-11, 02:46:00,VALID,918.118,VALID,0,VALID,98.3573,VALID,0,VALID,20.1774,VALID,81,VALID,0.837391,
2005-03-11, 02:47:00,VALID,918.113,VALID,0,VALID,98.4718,VALID,0,VALID,20.1577,VALID,82,VALID,0.905078,
2005-03-11, 02:48:00,VALID,918.118,VALID,0,VALID,98.4616,VALID,0,VALID,20.1225,VALID,87,VALID,1.10347,
2005-03-11, 02:49:00,VALID,918.114,VALID,0,VALID,98.4222,VALID,0.0169808,VALID,20.0733,VALID,91,VALID,1.2394,
2005-03-11, 02:50:00,VALID,918.122,VALID,0,VALID,98.3942,VALID,0.0509425,VALID,20.0413,VALID,90,VALID,1.25893,
2005-03-11, 02:51:00,VALID,918.118,VALID,0,VALID,98.4959,VALID,0.0169808,VALID,20.0157,VALID,75,VALID,0.860431,
2005-03-11, 02:52:00,VALID,918.123,VALID,0,VALID,98.4896,VALID,0.0169808,VALID,19.9831,VALID,72,VALID,1.15352,
2005-03-11, 02:53:00,VALID,918.127,VALID,0,VALID,98.4909,VALID,0,VALID,19.9675,VALID,93,VALID,0.967535,
2005-03-11, 02:54:00,VALID,918.147,VALID,0,VALID,98.5773,VALID,0,VALID,19.9548,VALID,106,VALID,0.926067,
2005-03-11, 02:55:00,VALID,918.151,VALID,0,VALID,98.6714,VALID,0,VALID,19.9409,VALID,108,VALID,0.832386,
2005-03-11, 02:56:00,VALID,918.146,VALID,0,VALID,98.7821,VALID,-0.0169808,VALID,19.9449,VALID,69,VALID,0.524891,
2005-03-11, 02:57:00,VALID,918.137,VALID,0,VALID,98.8494,VALID,-0.0169808,VALID,19.9451,VALID,73,VALID,0.879573,
2005-03-11, 02:58:00,VALID,918.121,VALID,0,VALID,98.9334,VALID,0,VALID,19.9451,VALID,79,VALID,0.826215,
2005-03-11, 02:59:00,VALID,918.129,VALID,0,VALID,98.9855,VALID,0,VALID,19.9419,VALID,57,VALID,1.00145,
2005-03-11, 03:00:00,VALID,918.132,VALID,0,VALID,99.0529,VALID,0,VALID,19.9322,VALID,57,VALID,0.438262,
2005-03-11, 03:01:00,VALID,918.124,VALID,0,VALID,99.0377,VALID,0.0169808,VALID,19.9317,VALID,79,VALID,0.458079,
2005-03-11, 03:02:00,VALID,918.095,VALID,0,VALID,99.0911,VALID,0,VALID,19.922,VALID,88,VALID,0.354403,
2005-03-11, 03:03:00,VALID,918.068,VALID,0,VALID,99.1356,VALID,0,VALID,19.9153,VALID,97,VALID,0.418255,
2005-03-11, 03:04:00,VALID,918.049,VALID,0,VALID,99.1585,VALID,0,VALID,19.9066,VALID,81,VALID,0.800881,
2005-03-11, 03:05:00,VALID,918.012,VALID,0,VALID,99.0936,VALID,0.0169808,VALID,19.8902,VALID,103,VALID,0.892969,
2005-03-11, 03:06:00,VALID,918.003,VALID,0,VALID,99.1648,VALID,0,VALID,19.884,VALID,104,VALID,0.418605,
2005-03-11, 03:07:00,VALID,917.98,VALID,0,VALID,99.2258,VALID,-0.0169808,VALID,19.8706,VALID,102,VALID,0.153832,
2005-03-11, 03:08:00,VALID,917.969,VALID,0,VALID,99.2627,VALID,0,VALID,19.8674,VALID,102,VALID,0.361852,
2005-03-11, 03:09:00,VALID,917.919,VALID,0,VALID,99.2742,VALID,0.0169808,VALID,19.8478,VALID,117,VALID,0.57758,
2005-03-11, 03:10:00,VALID,917.905,VALID,0,VALID,99.1953,VALID,0.0339617,VALID,19.8383,VALID,123,VALID,0.828307,
2005-03-11, 03:11:00,VALID,917.879,VALID,0,VALID,99.2462,VALID,0,VALID,19.845,VALID,125,VALID,0.504492,
2005-03-11, 03:12:00,VALID,917.873,VALID,0,VALID,99.208,VALID,-0.0169808,VALID,19.8257,VALID,171,VALID,1.03348,
2005-03-11, 03:13:00,VALID,917.853,VALID,0,VALID,99.2004,VALID,0,VALID,19.8229,VALID,190,VALID,0.934375,
2005-03-11, 03:14:00,VALID,917.857,VALID,0,VALID,99.2996,VALID,-0.0169808,VALID,19.8359,VALID,176,VALID,1.00446,
2005-03-11, 03:15:00,VALID,917.845,VALID,0,VALID,99.3047,VALID,0,VALID,19.8157,VALID,178,VALID,1.11186,
2005-03-11, 03:16:00,VALID,917.841,VALID,0,VALID,99.3085,VALID,-0.0169808,VALID,19.8167,VALID,187,VALID,0.966518,
2005-03-11, 03:17:00,VALID,917.838,VALID,0,VALID,99.3759,VALID,0,VALID,19.8165,VALID,177,VALID,0.720312,
2005-03-11, 03:18:00,VALID,917.825,VALID,0,VALID,99.4573,VALID,0,VALID,19.8294,VALID,182,VALID,0.684411,
2005-03-11, 03:19:00,VALID,917.807,VALID,0,VALID,99.4585,VALID,0.0169808,VALID,19.8259,VALID,197,VALID,0.610795,
2005-03-11, 03:20:00,VALID,917.786,VALID,0,VALID,99.3772,VALID,-0.0169808,VALID,19.8232,VALID,189,VALID,0.893359,
2005-03-11, 03:21:00,VALID,917.784,VALID,0,VALID,99.119,VALID,0,VALID,19.8003,VALID,179,VALID,1.0307,
2005-03-11, 03:22:00,VALID,917.76,VALID,0,VALID,98.9283,VALID,-0.0169808,VALID,19.774,VALID,184,VALID,0.806046,
2005-03-11, 03:23:00,VALID,917.769,VALID,0,VALID,98.8062,VALID,0.0169808,VALID,19.7877,VALID,179,VALID,0.746652,
2005-03-11, 03:24:00,VALID,917.766,VALID,0,VALID,98.5977,VALID,0.0169808,VALID,19.7713,VALID,166,VALID,1.00476,
2005-03-11, 03:25:00,VALID,917.768,VALID,0,VALID,98.4807,VALID,0,VALID,19.768,VALID,151,VALID,0.510653,
2005-03-11, 03:26:00,VALID,917.782,VALID,0,VALID,98.4006,VALID,-0.0169808,VALID,19.7618,VALID,136,VALID,0.528088,
2005-03-11, 03:27:00,VALID,917.818,VALID,0,VALID,98.2302,VALID,0,VALID,19.7559,VALID,132,VALID,0.738758,
2005-03-11, 03:28:00,VALID,917.847,VALID,0,VALID,98.0522,VALID,0,VALID,19.7526,VALID,93,VALID,0.52798,
2005-03-11, 03:29:00,VALID,917.892,VALID,0,VALID,98.1259,VALID,-0.0169808,VALID,19.7556,VALID,95,VALID,0.635045,
2005-03-11, 03:30:00,VALID,917.929,VALID,0,VALID,98.1806,VALID,-0.0339617,VALID,19.7623,VALID,92,VALID,0.886161,
2005-03-11, 03:31:00,VALID,917.976,VALID,0,VALID,98.1399,VALID,0,VALID,19.7519,VALID,84,VALID,0.941406,
2005-03-11, 03:32:00,VALID,918.022,VALID,0,VALID,97.7775,VALID,-0.0169808,VALID,19.7621,VALID,96,VALID,1.03634,
2005-03-11, 03:33:00,VALID,918.039,VALID,0,VALID,97.3083,VALID,0.0169808,VALID,19.7589,VALID,86,VALID,1.28869,
2005-03-11, 03:34:00,VALID,918.064,VALID,0,VALID,97.0133,VALID,0,VALID,19.7882,VALID,112,VALID,1.06098,
2005-03-11, 03:35:00,VALID,918.064,VALID,0,VALID,96.9026,VALID,0,VALID,19.7906,VALID,121,VALID,0.918786,
2005-03-11, 03:36:00,VALID,918.084,VALID,0,VALID,97.0107,VALID,-0.0169808,VALID,19.8073,VALID,106,VALID,0.611607,